Time,TemperatureF,DewpointF,PressureIn,WindDirection,WindDirectionDegrees,WindSpeedMPH,WindSpeedGustMPH,Humidity,HourlyPrecipIn,Conditions,Clouds,dailyrainin,SoftwareType,DateUTC
2013-02-18 00:11:00,39.0,33.0,-100.00,West,260,3.0,6.0,77,0.00,,,-99.99,,2013-02-18 06:11:00,
2013-02-18 00:21:00,39.0,33.0,-100.00,WSW,245,4.0,6.0,77,0.00,,,-99.99,,2013-02-18 06:21:00,
2013-02-18 00:32:00,38.0,33.0,-100.00,WSW,255,6.0,7.0,79,0.00,,,-99.99,,2013-02-18 06:32:00,
2013-02-18 00:41:00,38.0,33.0,-100.00,WSW,255,5.0,7.0,79,0.00,,,-99.99,,2013-02-18 06:41:00,
2013-02-18 00:51:00,39.0,33.0,-100.00,West,260,6.0,9.0,80,0.00,,,-99.99,,2013-02-18 06:51:00,
2013-02-18 01:01:00,39.0,33.0,-100.00,West,260,6.0,9.0,80,0.00,,,-99.99,,2013-02-18 07:01:00,
2013-02-18 01:11:00,39.0,33.0,-100.00,WSW,250,7.0,9.0,81,0.00,,,-99.99,,2013-02-18 07:11:00,
2013-02-18 01:21:00,38.0,33.0,-100.00,West,260,7.0,10.0,81,0.00,,,-99.99,,2013-02-18 07:21:00,
2013-02-18 01:32:00,40.0,35.0,-100.00,NW,320,9.0,12.0,82,0.00,,,-99.99,,2013-02-18 07:32:00,
2013-02-18 01:42:00,40.0,35.0,-100.00,NW,320,9.0,12.0,82,0.00,,,-99.99,,2013-02-18 07:42:00,
2013-02-18 01:51:00,40.0,35.0,-100.00,North,5,10.0,13.0,83,0.00,,,-99.99,,2013-02-18 07:51:00,
2013-02-18 02:01:00,39.0,35.0,-100.00,North,5,10.0,13.0,83,0.00,,,-99.99,,2013-02-18 08:01:00,
2013-02-18 02:11:00,39.0,35.0,-100.00,NNE,15,12.0,14.0,84,0.00,,,-99.99,,2013-02-18 08:11:00,
2013-02-18 02:21:00,39.0,35.0,-100.00,NNE,20,13.0,17.0,85,0.00,,,-99.99,,2013-02-18 08:21:00,
2013-02-18 02:32:00,38.0,35.0,-100.00,NNE,15,12.0,17.0,87,0.00,,,-99.99,,2013-02-18 08:32:00,
2013-02-18 02:42:00,38.0,35.0,-100.00,NNE,25,13.0,18.0,87,0.00,,,-99.99,,2013-02-18 08:42:00,
2013-02-18 02:52:00,38.0,35.0,-100.00,NNE,15,12.0,16.0,90,0.00,,,-99.99,,2013-02-18 08:52:00,
2013-02-18 03:02:00,38.0,35.0,-100.00,NNE,25,12.0,16.0,90,0.00,,,-99.99,,2013-02-18 09:02:00,
2013-02-18 03:11:00,37.0,35.0,-100.00,NNE,25,12.0,16.0,91,0.00,,,-99.99,,2013-02-18 09:11:00,
2013-02-18 03:22:00,37.0,35.0,-100.00,NE,35,9.0,15.0,91,0.00,,,-99.99,,2013-02-18 09:22:00,
2013-02-18 03:32:00,37.0,35.0,-100.00,NNE,30,11.0,15.0,92,0.00,,,-99.99,,2013-02-18 09:32:00,
2013-02-18 03:41:00,37.0,35.0,-100.00,NNE,30,11.0,15.0,92,0.00,,,-99.99,,2013-02-18 09:41:00,
2013-02-18 03:51:00,37.0,35.0,-100.00,NNE,20,15.0,21.0,92,0.00,,,-99.99,,2013-02-18 09:51:00,
2013-02-18 04:01:00,36.0,34.0,-100.00,NNE,25,12.0,21.0,92,0.00,,,-99.99,,2013-02-18 10:01:00,
2013-02-18 04:11:00,36.0,35.0,-100.00,NNE,25,12.0,20.0,92,0.00,,,-99.99,,2013-02-18 10:11:00,
2013-02-18 04:21:00,36.0,34.0,-100.00,North,-999,-999.0,-999.0,92,0.00,,,-99.99,,2013-02-18 10:21:00,
2013-02-18 04:31:00,37.0,35.0,-100.00,NE,50,9.0,16.0,92,0.00,,,-99.99,,2013-02-18 10:31:00,
2013-02-18 04:42:00,37.0,35.0,-100.00,NE,50,9.0,16.0,92,0.00,,,-99.99,,2013-02-18 10:42:00,
2013-02-18 04:52:00,36.0,34.0,-100.00,NNE,30,11.0,14.0,92,0.00,,,-99.99,,2013-02-18 10:52:00,
2013-02-18 05:01:00,36.0,34.0,-100.00,NNE,30,11.0,14.0,92,0.00,,,-99.99,,2013-02-18 11:01:00,
2013-02-18 05:11:00,36.0,34.0,-100.00,NNE,30,11.0,15.0,92,0.00,,,-99.99,,2013-02-18 11:11:00,
2013-02-18 05:22:00,36.0,34.0,-100.00,NNE,25,6.0,14.0,93,0.00,,,-99.99,,2013-02-18 11:22:00,
2013-02-18 05:32:00,35.0,34.0,-100.00,NNE,25,9.0,14.0,93,0.00,,,-99.99,,2013-02-18 11:32:00,
2013-02-18 05:52:00,36.0,34.0,-100.00,NE,35,9.0,16.0,93,0.00,,,-99.99,,2013-02-18 11:52:00,
2013-02-18 06:02:00,36.0,34.0,-100.00,NNE,30,10.0,14.0,93,0.00,,,-99.99,,2013-02-18 12:02:00,
2013-02-18 06:11:00,35.0,33.0,-100.00,NNE,25,9.0,14.0,93,0.00,,,-99.99,,2013-02-18 12:11:00,
2013-02-18 06:32:00,35.0,34.0,-100.00,NNE,20,9.0,12.0,93,0.00,,,-99.99,,2013-02-18 12:32:00,
2013-02-18 06:52:00,36.0,35.0,-100.00,NNE,15,14.0,17.0,93,0.00,,,-99.99,,2013-02-18 12:52:00,
2013-02-18 07:22:00,36.0,35.0,-100.00,NNE,20,13.0,19.0,92,0.00,,,-99.99,,2013-02-18 13:22:00,
2013-02-18 07:32:00,37.0,35.0,-100.00,NNE,25,17.0,22.0,91,0.00,,,-99.99,,2013-02-18 13:32:00,
2013-02-18 07:42:00,37.0,35.0,-100.00,NNE,20,17.0,21.0,91,0.00,,,-99.99,,2013-02-18 13:42:00,
2013-02-18 07:52:00,37.0,35.0,-100.00,NNE,25,19.0,27.0,91,0.00,,,-99.99,,2013-02-18 13:52:00,
2013-02-18 08:02:00,37.0,35.0,-100.00,NNE,20,17.0,27.0,91,0.00,,,-99.99,,2013-02-18 14:02:00,
2013-02-18 08:11:00,37.0,34.0,-100.00,NNE,25,23.0,29.0,90,0.00,,,-99.99,,2013-02-18 14:11:00,
2013-02-18 08:33:00,36.0,33.0,-100.00,NNE,25,18.0,27.0,88,0.00,,,-99.99,,2013-02-18 14:33:00,
2013-02-18 08:41:00,36.0,33.0,-100.00,NNE,25,24.0,34.0,88,0.00,,,-99.99,,2013-02-18 14:41:00,
2013-02-18 08:53:00,36.0,33.0,-100.00,NNE,30,23.0,31.0,87,0.00,,,-99.99,,2013-02-18 14:53:00,
2013-02-18 09:02:00,36.0,33.0,-100.00,NNE,20,23.0,33.0,88,0.00,,,-99.99,,2013-02-18 15:02:00,
2013-02-18 09:11:00,35.0,32.0,-100.00,NNE,25,24.0,42.0,88,0.00,,,-99.99,,2013-02-18 15:11:00,
2013-02-18 09:22:00,34.0,31.0,-100.00,NNE,25,27.0,37.0,87,0.00,,,-99.99,,2013-02-18 15:22:00,
2013-02-18 09:32:00,33.0,29.0,-100.00,NNE,15,28.0,40.0,85,0.00,,,-99.99,,2013-02-18 15:32:00,
2013-02-18 09:52:00,31.0,26.0,-100.00,NNE,20,23.0,31.0,83,0.00,,,-99.99,,2013-02-18 15:52:00,
2013-02-18 10:02:00,30.0,25.0,-100.00,NNE,20,26.0,38.0,82,0.00,,,-99.99,,2013-02-18 16:02:00,
2013-02-18 10:12:00,29.0,25.0,-100.00,NNE,15,21.0,32.0,83,0.00,,,-99.99,,2013-02-18 16:12:00,
2013-02-18 10:22:00,29.0,24.0,-100.00,NNE,20,24.0,32.0,82,0.00,,,-99.99,,2013-02-18 16:22:00,
2013-02-18 10:32:00,29.0,24.0,-100.00,NNE,15,23.0,32.0,81,0.00,,,-99.99,,2013-02-18 16:32:00,
2013-02-18 10:52:00,29.0,24.0,-100.00,NNE,25,23.0,35.0,79,0.00,,,-99.99,,2013-02-18 16:52:00,
2013-02-18 11:03:00,29.0,24.0,-100.00,NNE,25,23.0,35.0,79,0.00,,,-99.99,,2013-02-18 17:03:00,
2013-02-18 11:12:00,29.0,24.0,-100.00,NNE,15,24.0,34.0,79,0.00,,,-99.99,,2013-02-18 17:12:00,
2013-02-18 11:22:00,29.0,24.0,-100.00,North,10,20.0,32.0,79,0.00,,,-99.99,,2013-02-18 17:22:00,
2013-02-18 11:32:00,28.0,23.0,-100.00,NNE,15,24.0,32.0,78,0.00,,,-99.99,,2013-02-18 17:32:00,
2013-02-18 11:42:00,28.0,22.0,-100.00,NNE,15,28.0,35.0,76,0.00,,,-99.99,,2013-02-18 17:42:00,
2013-02-18 11:52:00,28.0,22.0,-100.00,NNE,25,28.0,35.0,76,0.00,,,-99.99,,2013-02-18 17:52:00,
2013-02-18 12:02:00,28.0,21.0,-100.00,NNE,20,22.0,34.0,75,0.00,,,-99.99,,2013-02-18 18:02:00,
2013-02-18 12:12:00,27.0,20.0,-100.00,NNE,20,26.0,33.0,75,0.00,,,-99.99,,2013-02-18 18:12:00,
2013-02-18 12:22:00,27.0,20.0,-100.00,NNE,20,27.0,34.0,74,0.00,,,-99.99,,2013-02-18 18:22:00,
2013-02-18 12:32:00,27.0,20.0,-100.00,NNE,20,24.0,34.0,74,0.00,,,-99.99,,2013-02-18 18:32:00,
2013-02-18 12:42:00,28.0,20.0,-100.00,NNE,20,24.0,32.0,72,0.00,,,-99.99,,2013-02-18 18:42:00,
2013-02-18 13:33:00,27.0,20.0,-100.00,NNE,15,28.0,37.0,73,0.00,,,-99.99,,2013-02-18 19:33:00,
2013-02-18 13:42:00,27.0,20.0,-100.00,NNE,15,28.0,37.0,73,0.00,,,-99.99,,2013-02-18 19:42:00,
2013-02-18 13:52:00,28.0,20.0,-100.00,North,10,26.0,39.0,71,0.00,,,-99.99,,2013-02-18 19:52:00,
2013-02-18 14:02:00,28.0,20.0,-100.00,North,10,26.0,39.0,71,0.00,,,-99.99,,2013-02-18 20:02:00,
2013-02-18 14:12:00,27.0,19.0,-100.00,NNE,15,27.0,35.0,71,0.00,,,-99.99,,2013-02-18 20:12:00,
2013-02-18 14:22:00,27.0,19.0,-100.00,NNE,15,27.0,35.0,71,0.00,,,-99.99,,2013-02-18 20:22:00,
2013-02-18 14:33:00,26.0,18.0,-100.00,NNE,25,28.0,36.0,71,0.00,,,-99.99,,2013-02-18 20:33:00,
2013-02-18 14:52:00,26.0,18.0,-100.00,NNE,20,24.0,35.0,72,0.00,,,-99.99,,2013-02-18 20:52:00,
2013-02-18 15:02:00,26.0,18.0,-100.00,NNE,15,27.0,34.0,71,0.00,,,-99.99,,2013-02-18 21:02:00,
2013-02-18 15:12:00,25.0,17.0,-100.00,NNE,25,26.0,34.0,71,0.00,,,-99.99,,2013-02-18 21:12:00,
2013-02-18 15:32:00,27.0,19.0,-100.00,North,10,20.0,35.0,71,0.00,,,-99.99,,2013-02-18 21:32:00,
2013-02-18 15:42:00,27.0,19.0,-100.00,North,10,20.0,35.0,71,0.00,,,-99.99,,2013-02-18 21:42:00,
2013-02-18 15:52:00,26.0,17.0,-100.00,NNE,20,24.0,34.0,68,0.00,,,-99.99,,2013-02-18 21:52:00,
2013-02-18 16:02:00,25.0,16.0,-100.00,NNE,20,24.0,34.0,69,0.00,,,-99.99,,2013-02-18 22:02:00,
2013-02-18 16:12:00,25.0,17.0,-100.00,NNE,15,25.0,34.0,70,0.00,,,-99.99,,2013-02-18 22:12:00,
2013-02-18 16:22:00,24.0,16.0,-100.00,NNE,15,29.0,37.0,69,0.00,,,-99.99,,2013-02-18 22:22:00,
2013-02-18 16:33:00,24.0,16.0,-100.00,North,10,26.0,35.0,70,0.00,,,-99.99,,2013-02-18 22:33:00,
2013-02-18 16:52:00,23.0,16.0,-100.00,North,10,28.0,37.0,72,0.00,,,-99.99,,2013-02-18 22:52:00,
2013-02-18 17:22:00,23.0,16.0,-100.00,NNE,15,24.0,37.0,74,0.00,,,-99.99,,2013-02-18 23:22:00,
2013-02-18 17:32:00,23.0,16.0,-100.00,NNE,20,21.0,30.0,75,0.00,,,-99.99,,2013-02-18 23:32:00,
2013-02-18 17:42:00,22.0,16.0,-100.00,NNE,15,25.0,38.0,74,0.00,,,-99.99,,2013-02-18 23:42:00,
2013-02-18 17:52:00,21.0,15.0,-100.00,North,10,27.0,35.0,74,0.00,,,-99.99,,2013-02-18 23:52:00,
2013-02-18 18:02:00,21.0,14.0,-100.00,NNE,20,27.0,34.0,74,0.00,,,-99.99,,2013-02-19 00:02:00,
2013-02-18 18:12:00,21.0,14.0,-100.00,NNE,20,21.0,30.0,76,0.00,,,-99.99,,2013-02-19 00:12:00,
2013-02-18 18:22:00,20.0,14.0,-100.00,NNE,15,29.0,39.0,76,0.00,,,-99.99,,2013-02-19 00:22:00,
2013-02-18 18:34:00,19.0,13.0,-100.00,NNE,15,20.0,34.0,77,0.00,,,-99.99,,2013-02-19 00:34:00,
2013-02-18 18:42:00,19.0,13.0,-100.00,NNE,15,21.0,30.0,78,0.00,,,-99.99,,2013-02-19 00:42:00,
2013-02-18 18:53:00,19.0,13.0,-100.00,NNE,20,24.0,32.0,78,0.00,,,-99.99,,2013-02-19 00:53:00,
2013-02-18 19:03:00,18.0,12.0,-100.00,NNE,20,28.0,37.0,77,0.00,,,-99.99,,2013-02-19 01:03:00,
2013-02-18 19:13:00,18.0,12.0,-100.00,NNE,25,26.0,34.0,77,0.00,,,-99.99,,2013-02-19 01:13:00,
2013-02-18 19:23:00,18.0,12.0,-100.00,NNE,20,24.0,35.0,77,0.00,,,-99.99,,2013-02-19 01:23:00,
2013-02-18 19:34:00,17.0,11.0,-100.00,NNE,25,26.0,34.0,77,0.00,,,-99.99,,2013-02-19 01:34:00,
2013-02-18 19:43:00,17.0,11.0,-100.00,NNE,20,22.0,32.0,77,0.00,,,-99.99,,2013-02-19 01:43:00,
2013-02-18 19:53:00,17.0,11.0,-100.00,NNE,20,19.0,27.0,78,0.00,,,-99.99,,2013-02-19 01:53:00,
2013-02-18 20:13:00,17.0,12.0,-100.00,NNE,20,21.0,32.0,80,0.00,,,-99.99,,2013-02-19 02:13:00,
2013-02-18 20:22:00,17.0,12.0,-100.00,NNE,20,21.0,32.0,80,0.00,,,-99.99,,2013-02-19 02:22:00,
2013-02-18 20:33:00,17.0,12.0,-100.00,NNE,20,19.0,29.0,80,0.00,,,-99.99,,2013-02-19 02:33:00,
2013-02-18 20:42:00,17.0,12.0,-100.00,NNE,20,19.0,29.0,80,0.00,,,-99.99,,2013-02-19 02:42:00,
2013-02-18 20:53:00,17.0,11.0,-100.00,North,10,28.0,40.0,78,0.00,,,-99.99,,2013-02-19 02:53:00,
2013-02-18 21:05:00,16.0,11.0,-100.00,NNE,20,24.0,38.0,79,0.00,,,-99.99,,2013-02-19 03:05:00,
2013-02-18 21:33:00,15.0,10.0,-100.00,NNE,20,28.0,40.0,79,0.00,,,-99.99,,2013-02-19 03:33:00,
2013-02-18 21:43:00,15.0,10.0,-100.00,NNE,20,28.0,40.0,79,0.00,,,-99.99,,2013-02-19 03:43:00,
2013-02-18 21:52:00,15.0,9.0,-100.00,NNE,25,24.0,32.0,79,0.00,,,-99.99,,2013-02-19 03:52:00,
2013-02-18 22:02:00,15.0,9.0,-100.00,NNE,25,24.0,32.0,79,0.00,,,-99.99,,2013-02-19 04:02:00,
2013-02-18 22:13:00,14.0,9.0,-100.00,NNE,20,27.0,35.0,79,0.00,,,-99.99,,2013-02-19 04:13:00,
2013-02-18 22:22:00,14.0,9.0,-100.00,NNE,20,27.0,35.0,79,0.00,,,-99.99,,2013-02-19 04:22:00,
2013-02-18 22:33:00,14.0,9.0,-100.00,NNE,15,30.0,40.0,80,0.00,,,-99.99,,2013-02-19 04:33:00,
2013-02-18 22:43:00,14.0,9.0,-100.00,NNE,15,30.0,40.0,80,0.00,,,-99.99,,2013-02-19 04:43:00,
2013-02-18 22:52:00,13.0,8.0,-100.00,NNE,15,21.0,32.0,80,0.00,,,-99.99,,2013-02-19 04:52:00,
2013-02-18 23:02:00,13.0,8.0,-100.00,NNE,15,21.0,32.0,80,0.00,,,-99.99,,2013-02-19 05:02:00,
2013-02-18 23:12:00,13.0,8.0,-100.00,NNE,15,26.0,37.0,80,0.00,,,-99.99,,2013-02-19 05:12:00,
2013-02-18 23:22:00,12.0,6.0,-100.00,NNE,20,22.0,34.0,78,0.00,,,-99.99,,2013-02-19 05:22:00,
2013-02-18 23:32:00,11.0,6.0,-100.00,North,5,21.0,28.0,79,0.00,,,-99.99,,2013-02-19 05:32:00,
2013-02-18 23:43:00,11.0,6.0,-100.00,North,5,21.0,28.0,79,0.00,,,-99.99,,2013-02-19 05:43:00,
2013-02-18 23:52:00,11.0,6.0,-100.00,North,10,21.0,30.0,81,0.00,,,-99.99,,2013-02-19 05:52:00,